Regional Weather Roundup
Issued by NWS

Home | Current Version | Previous Version | Text Only | Print | Product List | Glossary On
Versions: 1 2 3 4 5 6 7 8 9 10 11 12 13 14 15 16 17 18 19 20 21 22 23 24 25 26 27 28 29 30 31 32 33 34 35 36 37 38 39 40 41 42 43 44 45 46 47 48 49 50
000
ASUS43 KDTX 230810
RWRMI
MICHIGAN HOURLY REGIONAL WEATHER ROUNDUP
NATIONAL WEATHER SERVICE DETROIT/PONTIAC MI
300 AM EST TUE JAN 23 2018

NOTE: "FAIR" INDICATES FEW OR NO CLOUDS BELOW 12,000 FEET WITH NO
SIGNIFICANT WEATHER AND/OR OBSTRUCTION TO VISIBILITY.

MIZ047>049-052>055-059>063-066>070-074>076-081>083-230900-
SOUTHEAST LOWER MICHIGAN

CITY           SKY/WX    TMP DP  RH WIND       PRES   REMARKS
ADRIAN         FAIR      38  33  82 SW7       29.54R WCI  33
ALMA           CLOUDY    41  41 100 S6        29.44F
ANN ARBOR      FAIR      41  39  93 S7        29.50R
BAD AXE        MOCLDY    40  40 100 CALM      29.44F FOG
CARO           FOG       41  41 100 SW5       29.43S VSB 3/4
DETROIT CITY   FAIR      44  42  93 SW10      29.50R
DETROIT        FAIR      43  40  89 SW12      29.51R
FLINT          MOCLDY    44  42  93 SW9       29.47R
GROSSE ILE     FAIR      43  39  87 W9        29.51R
HILLSDALE      FAIR      37  34  87 SW6       29.50R WCI  33
HOWELL         FAIR      42  40  91 SW5       29.48R

CITY           SKY/WX    TMP DP  RH WIND       PRES   REMARKS
JACKSON        MOCLDY    39  35  86 SW8       29.50R WCI  33
LAMBERTVILLE   FAIR      41  37  84 SW8       29.53S
LANSING        FAIR      39  37  92 SW7       29.48S WCI  34
LAPEER         FAIR      43  43  99 CALM      29.45F FOG
MONROE         FAIR      40  37  88 W8        29.52S WCI  35
MT. CLEMENS    FAIR     N/A N/A N/A S8          N/A
PONTIAC        MOCLDY    44  43  96 SW8       29.47R
PORT HOPE        N/A     37  37 100 S5        29.43R WCI  33
PORT HURON     FAIR      43  39  87 S7        29.47F
TRI CITIES     LGT RAIN  42  42 100 W13       29.43F
MIDLAND        RAIN      44  44 100 SW5       29.43S
TROY           FAIR      45  43  94 SW8       29.50S
SAGINAW HB     CLOUDY    43  41  93 SW12      29.43S
$$
MIZ043>046-050>051-056>058-064>065-071>073-077>080-230900-
SOUTHWEST LOWER MICHIGAN

CITY           SKY/WX    TMP DP  RH WIND       PRES   REMARKS
BATTLE CREEK   FAIR      37  34  89 SW8       29.49S WCI  31
BENTON HARBOR  FAIR      38  31  76 SW10      29.50R WCI  31
BIG RAPIDS     LGT SNOW  39  37  94 S3        29.41R
COLDWATER      FAIR      38  36  92 SW8       29.51S WCI  32
FREMONT        CLOUDY    38  37  95 S13       29.42R WCI  30
HOLLAND        CLOUDY    39  34  82 SW15      29.47S WCI  31
GRAND RAPIDS   CLOUDY    38  35  89 SW13      29.46R WCI  30
IONIA          CLOUDY    38  37  94 SW13G18   29.45S WCI  31
KALAMAZOO      FAIR      38  34  85 SW8       29.49S WCI  32
LUDINGTON      RAIN      38  38 100 CALM      29.39S
MARSHALL       FAIR      38  36  93 SW7       29.49S WCI  32
MOUNT PLEASANT MIX PCPN  42  41  97 SW8       29.43R
MUSKEGON       CLOUDY    38  35  89 S21G26    29.44R WCI  28
SOUTH HAVEN    FAIR      39  33  77 SW12      29.49R WCI  32
$$
MIZ016>042-230900-
NORTHERN LOWER MICHIGAN

CITY           SKY/WX    TMP DP  RH WIND       PRES   REMARKS
ALPENA         CLOUDY    33  33 100 NE13      29.48S FOG     WCI  24
BEAVER ISLAND  CLOUDY    24  22  91 NE7       29.55R WCI  16
BELLAIRE       CLOUDY    32  32 100 N6        29.46F WCI  27
CADILLAC       FOG       36  35  99 N3        29.39S VSB 1/2
CHARLEVOIX     CLOUDY    28  28 100 NE3       29.51F
FRANKFORT      CLOUDY    35  35 100 NE3       29.43S FOG
GAYLORD        FRZ RAIN  29  29 100 NE7       29.44F WCI  22
GRAYLING       LGT RAIN  32  31  98 NE7       29.43F WCI  26
HARBOR SPRINGS CLOUDY    28  28  99 NE8       29.49F FOG     WCI  20
HOUGHTON LAKE  FOG       35  34  96 NE7       29.41F VSB 3/4 WCI  29
MANISTEE       LGT RAIN  37  37 100 NE8       29.40F FOG     WCI  31
OSCODA         FOG       35  34  99 N3        29.43S VSB 3/4
PELLSTON       CLOUDY    25  24  96 NE13      29.53R FOG     WCI  14
ROGERS CITY    CLOUDY    28  28  96 NE5       29.53S FOG     WCI  23
TRAVERSE CITY  CLOUDY    35  34  96 NE13      29.43S FOG     WCI  26
$$
MIZ007>008-015-230900-
EASTERN UPPER MICHIGAN

CITY           SKY/WX    TMP DP  RH WIND       PRES   REMARKS
KINROSS        FLURRIES  18  15  88 NE13      29.56R WCI   5
MACKINAC ISLAN CLOUDY    22  21  94 NE17G23   29.53S WCI   8
NEWBERRY       CLOUDY    18  17  97 NE12G20   29.57R WCI   5
S. S. MARIE    LGT SNOW  20  15  81 E9G17     29.58R WCI   9
MUNISING         N/A     24  22  91 NE21      29.62S WCI   9
$$
MIZ004>006-011>014-085-230900-
CENTRAL UPPER MICHIGAN

CITY           SKY/WX    TMP DP  RH WIND       PRES   REMARKS
ESCANABA       FLURRIES  26  22  84 N10       29.58R WCI  16
MENOMINEE      FLURRIES  27  24  89 N12       29.57R WCI  17
SAWYER-GWINN   CLOUDY    21  19  93 N20G25    29.61S WCI   6
$$
MIZ001>003-009>011-084-230900-
WESTERN UPPER MICHIGAN

CITY           SKY/WX    TMP DP  RH WIND       PRES   REMARKS
IRON MOUNTAIN  CLOUDY    25  20  81 N20G28    29.58R WCI  11
HOUGHTON       LGT SNOW  22  16  78 NE14      29.75R WCI   9
COPPER HARBOR    N/A     23  20  88 E21G29    29.78R WCI   8
IRONWOOD       MIX PCPN  19  17  92 N9G17     29.81R FOG     WCI   8
$$

ABBREVIATIONS USED IN REMARKS
   TC - TEMPERATURE IN CELSIUS
  WCI - WIND CHILL INDEX
   HX - HEAT INDEX
  VSB - VISIBILITY




USA.gov is the U.S. government's official web portal to all federal, state and local government web resources and services.